User: anonymous   Login
Location: *
(52.2090°N, 4.1550°W)
Time: 12:14:04
(UTC+00:00)
Language:

Cosmos 292 Rocket - Orbit

View from above orbital plane
View from above orbital plane
View from above satellite
View from above satellite

Ground track
Ground track

The orbit data is extracted from the following two-line orbital elements,

1  4071U 69070B   19264.35579225  .00000012  00000-0  83955-5 0  9992
2  4071  74.0504 339.0166 0013357 109.2017 251.0597 14.62796245658656
Epoch (UTC): 21 September 2019 08:32:20
Eccentricity: 0.0013357
inclination: 74.0504°
perigee height: 675 km
apogee height: 693 km
right ascension of ascending node: 339.0166°
argument of perigee: 109.2017°
revolutions per day: 14.62796245
mean anomaly at epoch: 251.0597°
orbit number at epoch: 65865

The dashed part of the orbit path shows where the satellite is in the earth's shadow,  

DLR